When you browse on this site, cookies collect data to enhance your experience and personalize the content and advertising you see.
Visit our Privacy Policy to learn more. By continuing to use the site, you agree to this use of cookies and data.
  • en France
  • Liste des pays
  • À 7 jours
  • Température de l'eau
  • Carte satellitaire
  • Carte météo
  • Widgets météo
  • user-avatar
    Se connecter

    Météo par heure à Lenkoran

    Ce jour, 16 Février, Samedi

    Heure Température Précipitation Vent Pression Humidité
    00:00 -3°C° 1.4 mm 4 m/s 628 mmHg 94%
    01:00 -4°C° 3 mm 4 m/s 628 mmHg 95%
    02:00 -4°C° 3 mm 3 m/s 628 mmHg 95%
    03:00 -4°C° 3 mm 3 m/s 628 mmHg 96%
    04:00 -3°C° 1.3 mm 2 m/s 628 mmHg 95%
    05:00 -3°C° 1.3 mm 2 m/s 628 mmHg 95%
    06:00 -4°C° 1.3 mm 2 m/s 628 mmHg 95%
    07:00 -3°C° 0.7 mm 2 m/s 628 mmHg 95%
    08:00 -3°C° 0.7 mm 2 m/s 629 mmHg 94%
    09:00 -3°C° 0.7 mm 2 m/s 629 mmHg 93%
    10:00 -1°C° 0.4 mm 1 m/s 629 mmHg 91%
    11:00 0°C° 0.4 mm 1 m/s 629 mmHg 89%
    12:00 0°C° 0.4 mm 1 m/s 630 mmHg 87%
    13:00 0°C° 0.1 mm 1 m/s 630 mmHg 86%
    14:00 0°C° 0.1 mm 1 m/s 630 mmHg 85%
    15:00 +1°C° 0.1 mm 1 m/s 630 mmHg 84%
    16:00 0°C° 0 mm 1 m/s 629 mmHg 84%
    17:00 -1°C° 0 mm 1 m/s 629 mmHg 84%
    18:00 -1°C° 0 mm 1 m/s 629 mmHg 83%
    19:00 -1°C° 0 mm 1 m/s 629 mmHg 80%
    20:00 -4°C° 0 mm 2 m/s 629 mmHg 76%
    21:00 -4°C° 0 mm 2 m/s 629 mmHg 72%
    22:00 -4°C° 0 mm 2 m/s 629 mmHg 69%
    23:00 -5°C° 0 mm 3 m/s 629 mmHg 67%

    Demain, 17 Février, Dimanche

    Heure Température Précipitation Vent Pression Humidité
    00:00 -5°C° 0 mm 3 m/s 629 mmHg 64%
    01:00 -5°C° 0 mm 3 m/s 629 mmHg 65%
    02:00 -5°C° 0 mm 3 m/s 629 mmHg 66%
    03:00 -5°C° 0 mm 3 m/s 629 mmHg 66%
    04:00 -5°C° 0 mm 3 m/s 629 mmHg 67%
    05:00 -5°C° 0 mm 3 m/s 629 mmHg 68%
    06:00 -5°C° 0 mm 3 m/s 629 mmHg 69%
    07:00 -3°C° 0 mm 2 m/s 629 mmHg 70%
    08:00 -2°C° 0 mm 2 m/s 630 mmHg 70%
    09:00 +1°C° 0 mm 1 m/s 631 mmHg 71%
    10:00 +1°C° 0 mm 1 m/s 631 mmHg 72%
    11:00 -1°C° 0 mm 2 m/s 631 mmHg 72%
    12:00 +1°C° 0 mm 2 m/s 631 mmHg 73%
    13:00 +1°C° 0 mm 2 m/s 631 mmHg 74%
    14:00 +1°C° 0 mm 2 m/s 631 mmHg 75%
    15:00 +1°C° 0 mm 2 m/s 631 mmHg 76%
    16:00 +1°C° 0 mm 1 m/s 630 mmHg 78%
    17:00 0°C° 0 mm 1 m/s 630 mmHg 80%
    18:00 -2°C° 0 mm 1 m/s 630 mmHg 83%
    19:00 -2°C° 0 mm 1 m/s 630 mmHg 80%
    20:00 -4°C° 0 mm 2 m/s 630 mmHg 77%
    21:00 -4°C° 0 mm 2 m/s 631 mmHg 74%
    22:00 -4°C° 0 mm 2 m/s 630 mmHg 70%
    23:00 -5°C° 0 mm 3 m/s 630 mmHg 65%

    Après-demain, 18 Février, Lundi

    Heure Température Précipitation Vent Pression Humidité
    00:00 -5°C° 0 mm 3 m/s 630 mmHg 60%
    01:00 -5°C° 0 mm 3 m/s 630 mmHg 59%
    02:00 -5°C° 0 mm 3 m/s 629 mmHg 57%
    03:00 -5°C° 0 mm 3 m/s 629 mmHg 56%
    04:00 -5°C° 0 mm 3 m/s 629 mmHg 57%
    05:00 -5°C° 0 mm 3 m/s 629 mmHg 57%
    06:00 -5°C° 0 mm 3 m/s 629 mmHg 58%
    07:00 -4°C° 0 mm 3 m/s 629 mmHg 58%
    08:00 -2°C° 0 mm 3 m/s 629 mmHg 58%
    09:00 0°C° 0 mm 3 m/s 630 mmHg 57%
    10:00 +1°C° 0 mm 3 m/s 630 mmHg 60%
    11:00 +1°C° 0 mm 3 m/s 629 mmHg 62%
    12:00 +2°C° 0 mm 3 m/s 629 mmHg 64%
    13:00 +2°C° 0 mm 3 m/s 628 mmHg 64%
    14:00 +2°C° 0 mm 3 m/s 628 mmHg 64%
    15:00 +2°C° 0 mm 3 m/s 627 mmHg 64%
    16:00 +1°C° 0 mm 3 m/s 627 mmHg 64%
    17:00 0°C° 0 mm 3 m/s 627 mmHg 64%
    18:00 -1°C° 0 mm 3 m/s 626 mmHg 65%
    19:00 -2°C° 0 mm 3 m/s 626 mmHg 64%
    20:00 -2°C° 0 mm 3 m/s 626 mmHg 63%
    21:00 -2°C° 0 mm 3 m/s 626 mmHg 62%
    22:00 -4°C° 0 mm 3 m/s 626 mmHg 61%
    23:00 -4°C° 0 mm 3 m/s 626 mmHg 60%

    19 Février, Mardi

    Heure Température Précipitation Vent Pression Humidité
    00:00 -4°C° 0 mm 3 m/s 626 mmHg 59%
    01:00 -3°C° 0 mm 2 m/s 626 mmHg 59%
    02:00 -4°C° 0 mm 2 m/s 626 mmHg 59%
    03:00 -4°C° 0 mm 2 m/s 627 mmHg 59%
    04:00 -4°C° 0.2 mm 2 m/s 627 mmHg 67%
    05:00 -4°C° 0.2 mm 2 m/s 628 mmHg 76%
    06:00 -2°C° 0.2 mm 1 m/s 628 mmHg 84%
    07:00 -4°C° 0.8 mm 2 m/s 629 mmHg 85%
    08:00 -4°C° 0.8 mm 2 m/s 629 mmHg 87%
    09:00 -5°C° 0.8 mm 3 m/s 630 mmHg 88%
    10:00 -5°C° 0.6 mm 3 m/s 630 mmHg 88%
    11:00 -5°C° 0.6 mm 3 m/s 630 mmHg 88%
    12:00 -5°C° 0.6 mm 4 m/s 631 mmHg 89%
    13:00 -5°C° 0.6 mm 4 m/s 631 mmHg 89%
    14:00 -7°C° 0.6 mm 4 m/s 631 mmHg 89%
    15:00 -7°C° 0.6 mm 4 m/s 631 mmHg 90%
    16:00 -8°C° 0.5 mm 4 m/s 631 mmHg 90%
    17:00 -8°C° 0.5 mm 4 m/s 632 mmHg 91%
    18:00 -8°C° 0.5 mm 3 m/s 633 mmHg 92%
    19:00 -8°C° 0.6 mm 3 m/s 633 mmHg 92%
    20:00 -8°C° 0.6 mm 3 m/s 634 mmHg 92%
    21:00 -8°C° 0.6 mm 3 m/s 635 mmHg 91%
    22:00 -7°C° 0.5 mm 2 m/s 635 mmHg 91%
    23:00 -7°C° 0.5 mm 2 m/s 635 mmHg 91%

    20 Février, Mercredi

    Heure Température Précipitation Vent Pression Humidité
    00:00 -7°C° 0.5 mm 2 m/s 636 mmHg 91%
    01:00 -7°C° 0.2 mm 2 m/s 636 mmHg 90%
    02:00 -6°C° 0.2 mm 1 m/s 636 mmHg 90%
    03:00 -6°C° 0.2 mm 1 m/s 636 mmHg 89%
    04:00 -6°C° 0 mm 1 m/s 636 mmHg 88%
    05:00 -7°C° 0 mm 1 m/s 636 mmHg 86%
    06:00 -7°C° 0 mm 1 m/s 636 mmHg 85%
    07:00 -6°C° 0 mm 1 m/s 637 mmHg 81%
    08:00 -4°C° 0 mm 1 m/s 638 mmHg 77%
    09:00 -3°C° 0 mm 1 m/s 639 mmHg 73%
    10:00 -2°C° 0 mm 1 m/s 638 mmHg 72%
    11:00 -1°C° 0 mm 1 m/s 638 mmHg 72%
    12:00 -2°C° 0 mm 2 m/s 638 mmHg 71%
    13:00 -2°C° 0 mm 2 m/s 638 mmHg 71%
    14:00 -2°C° 0 mm 2 m/s 638 mmHg 71%
    15:00 -1°C° 0 mm 2 m/s 637 mmHg 71%
    16:00 -1°C° 0 mm 1 m/s 637 mmHg 73%
    17:00 -2°C° 0 mm 1 m/s 637 mmHg 75%
    18:00 -3°C° 0 mm 1 m/s 636 mmHg 78%
    19:00 -5°C° 0 mm 2 m/s 636 mmHg 74%
    20:00 -5°C° 0 mm 2 m/s 636 mmHg 70%
    21:00 -5°C° 0 mm 2 m/s 636 mmHg 66%
    22:00 -5°C° 0 mm 2 m/s 635 mmHg 63%
    23:00 -5°C° 0 mm 2 m/s 635 mmHg 59%

    21 Février, Jeudi

    Heure Température Précipitation Vent Pression Humidité
    00:00 -5°C° 0 mm 2 m/s 635 mmHg 56%
    01:00 -5°C° 0 mm 2 m/s 634 mmHg 54%
    02:00 -5°C° 0 mm 2 m/s 634 mmHg 52%
    03:00 -5°C° 0 mm 2 m/s 634 mmHg 51%
    04:00 -5°C° 0 mm 2 m/s 634 mmHg 50%
    05:00 -6°C° 0 mm 2 m/s 634 mmHg 49%
    06:00 -4°C° 0 mm 1 m/s 633 mmHg 48%
    07:00 -2°C° 0 mm 1 m/s 634 mmHg 49%
    08:00 -1°C° 0 mm 1 m/s 635 mmHg 49%
    09:00 +1°C° 0 mm 1 m/s 635 mmHg 50%
    10:00 +2°C° 0 mm 1 m/s 635 mmHg 54%
    11:00 +2°C° 0 mm 1 m/s 635 mmHg 57%
    12:00 +2°C° 0 mm 2 m/s 635 mmHg 61%
    13:00 +2°C° 0 mm 2 m/s 634 mmHg 62%
    14:00 +2°C° 0 mm 2 m/s 634 mmHg 63%
    15:00 +3°C° 0 mm 1 m/s 634 mmHg 64%
    16:00 +2°C° 0 mm 1 m/s 633 mmHg 68%
    17:00 0°C° 0 mm 1 m/s 633 mmHg 71%
    18:00 -1°C° 0 mm 1 m/s 632 mmHg 75%
    19:00 -1°C° 0 mm 1 m/s 632 mmHg 69%
    20:00 -1°C° 0 mm 1 m/s 632 mmHg 63%
    21:00 -3°C° 0 mm 2 m/s 632 mmHg 56%
    22:00 -4°C° 0 mm 2 m/s 632 mmHg 53%
    23:00 -4°C° 0 mm 2 m/s 632 mmHg 49%
    Voir plus